Regional Weather Roundup
Issued by NWS

Home | Current Version | Previous Version | Graphics & Text | Print | Product List | Glossary On
Versions: 1 2 3 4 5 6 7 8 9 10 11 12 13 14 15 16 17 18 19 20 21 22 23 24 25 26 27 28 29 30 31 32 33 34 35 36 37 38 39 40 41 42 43 44 45 46 47 48 49 50
000
ASUS44 KMEG 292200
RWRTN
TENNESSEE HOURLY STATE WEATHER ROUNDUP
NATIONAL WEATHER SERVICE MEMPHIS TN
500 PM CDT THU SEP 29 2016

TNZ002-004-019-021-049-052-054-088>092-292300-
WEST TENNESSEE

CITY           SKY/WX    TMP DP  RH WIND       PRES   REMARKS
MEMPHIS INTL   PTSUNNY   73  52  47 N15       30.11R
NWS MEMPHIS      N/A     72 N/A N/A MISG        N/A
JACKSON        MOSUNNY  N/A N/A N/A N14       30.13R
DYERSBURG      MOSUNNY  N/A N/A N/A MISG        N/A
UNION CITY     MOSUNNY   66  54  63 N8        30.11F
PARIS          MOSUNNY   61  52  72 NW6       30.12S
LEXINGTON      MOSUNNY   63  54  72 W8        30.11F
$$

TNZ008-025-027-028-033-062-065-066-292300-
NORTH MIDDLE TENNESSEE

CITY           SKY/WX    TMP DP  RH WIND       PRES   REMARKS
NASHVILLE      LGT RAIN  60  51  72 W8        30.10R
CLARKSVILLE    PTSUNNY   62  52  69 W7        30.10S
SMYRNA         CLOUDY    61  53  75 NW9       30.11R
COOKEVILLE     PTSUNNY   63  52  67 NW5       30.08R
CROSSVILLE     CLOUDY    60  44  55 W8        30.08R
$$

TNZ061-075-076-078-094-096-097-292300-
SOUTH MIDDLE TENNESSEE

CITY           SKY/WX    TMP DP  RH WIND       PRES   REMARKS
SHELBYVILLE    CLOUDY    63  52  67 N7        30.10S
$$

TNZ017-018-042-046-047-292300-
NORTHEAST TENNESSEE

CITY           SKY/WX    TMP DP  RH WIND       PRES   REMARKS
TRI CITIES     CLOUDY    64  55  72 W9        30.02R
$$

TNZ012-013-036-069-073-074-292300-
CENTRAL EAST TENNESSEE

CITY           SKY/WX    TMP DP  RH WIND       PRES   REMARKS
KNOXVILLE      PTSUNNY   68  47  46 NW12      30.02R
OAK RIDGE      PTSUNNY   69  46  43 NW5       30.05R
GATLINBURG     CLOUDY    66  48  52 NW7       30.02R
$$

TNZ083-085-099-292300-
SOUTHEAST TENNESSEE

CITY           SKY/WX    TMP DP  RH WIND       PRES   REMARKS
CHATTANOOGA    PTSUNNY   68  45  43 N12       30.05R
$$

SKY/WX REPORTED AS FAIR MEANS FEW OR NO CLOUDS BELOW
12 THOUSAND FEET.





USA.gov is the U.S. government's official web portal to all federal, state and local government web resources and services.